CW5444 Weather Reports


time (UTC)temp
C
wind
direction
speed
KPH
gust
KPH
rain 1hr
cm
rain 24hr
cm
rain mn
cm
humidity
%
barometer
mb
20260510220429 23 191 3.2 8.0 0.00 0.00 0.00 57 1016.7
20260510215416 23 189 8.0 12.9 0.00 0.00 0.00 55 1016.6
20260510214442 22 178 1.6 8.0 0.00 0.00 0.00 61 1016.5
20260510213429 22 151 4.8 11.3 0.00 0.00 0.00 57 1016.6
20260510212418 22 167 3.2 8.0 0.00 0.00 0.00 58 1016.7
20260510211423 21 175 4.8 9.7 0.00 0.00 0.00 63 1016.7
20260510210432 20 186 3.2 6.4 0.00 0.00 0.00 69 1016.7
20260510205438 19 167 4.8 29.0 0.00 0.00 0.00 68 1016.9
20260510204422 20 189 6.4 12.9 0.00 0.00 0.00 69 1017.0
20260510203421 20 187 4.8 17.7 0.00 0.00 0.00 67 1017.0
20260510202425 21 194 12.9 24.1 0.00 0.00 0.00 60 1017.0
20260510201453 21 180 6.4 9.7 0.00 0.00 0.00 60 1016.8
20260510200419 22 192 6.4 11.3 0.00 0.00 0.00 55 1016.8
20260510195427 23 169 1.6 14.5 0.00 0.00 0.00 54 1016.7
20260510194433 24 217 8.0 20.9 0.00 0.00 0.00 50 1016.7
20260510193422 24 194 4.8 17.7 0.00 0.00 0.00 53 1016.7
20260510192448 24 188 9.7 16.1 0.00 0.00 0.00 52 1016.8
20260510191432 23 162 8.0 12.9 0.00 0.00 0.00 55 1016.8
20260510190420 23 159 6.4 14.5 0.00 0.00 0.00 52 1016.9
20260510185427 23 196 9.7 19.3 0.00 0.00 0.00 56 1017.0
20260510184418 23 173 3.2 19.3 0.00 0.00 0.00 55 1016.9
20260510183446 23 162 8.0 17.7 0.00 0.00 0.00 58 1017.0
20260510182430 23 215 8.0 12.9 0.00 0.00 0.00 55 1017.1
20260510181416 23 198 3.2 12.9 0.00 0.00 0.00 58 1017.1
20260510180422 23 172 6.4 17.7 0.00 0.00 0.00 59 1017.2
20260510175429 23 195 4.8 16.1 0.00 0.00 0.00 57 1017.2
20260510174432 22 209 6.4 14.5 0.00 0.00 0.00 62 1017.3
20260510173434 22 184 6.4 14.5 0.00 0.00 0.00 63 1017.5
20260510172421 22 194 6.4 12.9 0.00 0.00 0.00 60 1017.7
20260510171428 22 171 8.0 16.1 0.00 0.00 0.00 61 1017.9
20260510170416 22 167 4.8 11.3 0.00 0.00 0.00 60 1017.9
20260510165428 22 150 4.8 16.1 0.00 0.00 0.00 60 1017.9
20260510164433 21 147 4.8 12.9 0.00 0.00 0.00 60 1017.9
20260510163420 21 195 3.2 11.3 0.00 0.00 0.00 64 1018.0
20260510162449 21 143 3.2 12.9 0.00 0.00 0.00 62 1018.1
20260510161417 21 153 3.2 17.7 0.00 0.00 0.00 63 1018.1
20260510160422 21 182 3.2 8.0 0.00 0.00 0.00 65 1018.1
20260510155429 20 166 8.0 16.1 0.00 0.00 0.00 65 1018.1
20260510154417 20 184 6.4 14.5 0.00 0.00 0.00 67 1018.2
20260510153423 20 200 4.8 11.3 0.00 0.00 0.00 71 1018.2
20260510152430 19 186 3.2 8.0 0.00 0.00 0.00 73 1018.2
20260510151417 18 171 0.0 8.0 0.00 0.00 0.00 74 1018.0
20260510150444 18 188 4.8 12.9 0.00 0.00 0.00 74 1018.2
20260510145429 18 167 8.0 11.3 0.00 0.00 0.00 74 1018.2
20260510144416 17 208 6.4 12.9 0.00 0.00 0.00 74 1018.3
20260510143424 17 182 4.8 12.9 0.00 0.00 0.00 76 1018.3
20260510142432 17 178 3.2 12.9 0.00 0.00 0.00 78 1018.3
20260510141452 16 198 4.8 14.5 0.00 0.00 0.00 79 1018.3
20260510140418 16 191 1.6 9.7 0.00 0.00 0.00 81 1018.2
20260510135425 15 184 3.2 9.7 0.00 0.00 0.00 83 1018.2
20260510134432 15 176 6.4 17.7 0.00 0.00 0.00 85 1018.4
20260510133417 14 192 3.2 8.0 0.00 0.00 0.00 87 1018.1
20260510132422 13 202 4.8 9.7 0.00 0.00 0.00 91 1018.1
20260510131416 13 186 3.2 6.4 0.00 0.00 0.00 93 1018.3
20260510130424 12 186 3.2 8.0 0.00 0.00 0.00 94 1018.2
20260510125431 11 180 3.2 6.4 0.00 0.00 0.00 94 1018.1
20260510124419 10 191 0.0 0.0 0.00 0.00 0.00 94 1018.3
20260510123426 10 191 0.0 0.0 0.00 0.00 0.00 94 1018.1
20260510122433 9 191 0.0 0.0 0.00 0.00 0.00 94 1018.0
20260510121421 8 191 0.0 0.0 0.00 0.00 0.00 94 1017.9
20260510120423 7 191 0.0 0.0 0.00 0.00 0.00 94 1017.9
20260510115428 7 191 0.0 0.0 0.00 0.00 0.00 94 1017.7
20260510114433 6 191 0.0 0.0 0.00 0.00 0.00 93 1017.4
20260510113425 6 191 0.0 0.0 0.00 0.00 0.00 93 1017.4
20260510112454 5 191 0.0 0.0 0.00 0.00 0.00 93 1017.4
20260510111441 5 191 0.0 0.0 0.00 0.00 0.00 92 1017.2
20260510110427 5 191 0.0 0.0 0.00 0.00 0.00 92 1017.1
20260510105434 4 191 0.0 0.0 0.00 0.00 0.00 91 1016.9
20260510104418 4 191 0.0 0.0 0.00 0.00 0.00 91 1016.8
20260510103423 4 191 0.0 0.0 0.00 0.00 0.00 91 1016.6
20260510102432 4 191 0.0 0.0 0.00 0.00 0.00 90 1016.4
20260510101417 4 191 0.0 0.0 0.00 0.00 0.00 90 1016.2
20260510100425 4 191 0.0 0.0 0.00 0.00 0.00 90 1016.2
20260510095434 5 191 0.0 0.0 0.00 0.00 0.00 90 1016.1
20260510094422 5 191 0.0 0.0 0.00 0.00 0.00 90 1015.9
20260510093429 5 191 0.0 0.0 0.00 0.00 0.00 91 1015.8
20260510092417 5 191 0.0 0.0 0.00 0.00 0.00 90 1015.8
20260510091424 5 191 0.0 0.0 0.00 0.00 0.00 90 1015.6
20260510090430 5 191 0.0 0.0 0.00 0.00 0.00 90 1015.5
20260510085416 5 191 0.0 0.0 0.00 0.00 0.00 90 1015.5
20260510084422 6 191 0.0 0.0 0.00 0.00 0.00 90 1015.4
20260510083428 6 191 0.0 0.0 0.00 0.00 0.00 91 1015.3
20260510082434 6 191 0.0 0.0 0.00 0.00 0.00 90 1015.3
20260510081422 6 191 0.0 0.0 0.00 0.00 0.00 91 1015.2
20260510080432 6 191 0.0 0.0 0.00 0.00 0.00 90 1015.0
20260510075416 6 191 0.0 0.0 0.00 0.00 0.00 90 1014.7
20260510074423 6 191 0.0 0.0 0.00 0.00 0.00 90 1014.6
20260510073430 6 191 0.0 0.0 0.00 0.00 0.00 90 1014.6
20260510072416 6 191 0.0 0.0 0.00 0.00 0.00 90 1014.7
20260510071421 6 191 0.0 0.0 0.00 0.00 0.00 90 1014.6
20260510070428 7 191 0.0 0.0 0.00 0.00 0.00 90 1014.7
20260510065433 7 191 0.0 0.0 0.00 0.00 0.00 90 1014.6
20260510064442 7 191 0.0 0.0 0.00 0.00 0.00 89 1014.7
20260510063446 7 191 0.0 0.0 0.00 0.00 0.00 89 1014.5
20260510062431 7 191 0.0 1.6 0.00 0.00 0.00 90 1014.6
20260510061421 7 191 0.0 0.0 0.00 0.00 0.00 89 1014.5
20260510060424 7 191 0.0 0.0 0.00 0.00 0.00 89 1014.6
20260510055430 7 191 0.0 0.0 0.00 0.00 0.00 89 1014.6
20260510054434 7 191 0.0 0.0 0.00 0.00 0.00 89 1014.6
20260510053438 7 191 0.0 0.0 0.00 0.00 0.00 88 1014.5
20260510052444 8 191 0.0 0.0 0.00 0.00 0.00 89 1014.5
20260510051426 8 191 0.0 0.0 0.00 0.00 0.00 89 1014.5
20260510050433 8 191 0.0 0.0 0.00 0.00 0.00 88 1014.4
20260510045418 8 191 0.0 0.0 0.00 0.00 0.00 88 1014.5
20260510044420 8 191 0.0 0.0 0.00 0.00 0.00 88 1014.4
20260510043425 8 191 0.0 0.0 0.00 0.00 0.00 88 1014.4
20260510042431 9 191 0.0 1.6 0.00 0.00 0.00 87 1014.4
20260510041417 9 191 0.0 0.0 0.00 0.00 0.00 86 1014.4
20260510040427 9 191 0.0 0.0 0.00 0.00 0.00 87 1014.2
20260510035431 9 191 0.0 3.2 0.00 0.00 0.00 86 1014.2
20260510034415 10 191 0.0 0.0 0.00 0.00 0.00 86 1014.4
20260510033420 10 191 0.0 0.0 0.00 0.00 0.00 85 1014.3
20260510032426 10 191 0.0 0.0 0.00 0.00 0.00 85 1014.2
20260510031451 10 191 0.0 0.0 0.00 0.00 0.00 85 1014.2
20260510030434 10 191 0.0 0.0 0.00 0.00 0.00 84 1014.1
20260510025418 11 191 0.0 0.0 0.00 0.00 0.00 84 1014.1
20260510024426 11 191 0.0 0.0 0.00 0.00 0.00 83 1013.9
20260510023433 11 191 0.0 0.0 0.00 0.00 0.00 83 1013.9
20260510022421 11 191 0.0 0.0 0.00 0.00 0.00 83 1013.7
20260510021445 11 191 0.0 0.0 0.00 0.00 0.00 82 1013.7
20260510020432 12 191 0.0 0.0 0.00 0.00 0.00 81 1013.5
20260510015418 12 191 0.0 0.0 0.00 0.00 0.00 80 1013.4
20260510014423 12 191 0.0 0.0 0.00 0.00 0.00 80 1013.2
20260510013428 13 191 0.0 0.0 0.00 0.00 0.00 78 1013.0
20260510012432 13 191 0.0 0.0 0.00 0.00 0.00 77 1012.9
20260510011434 13 191 0.0 0.0 0.00 0.00 0.00 75 1012.8
20260510010441 14 191 0.0 0.0 0.00 0.00 0.00 74 1012.5
20260510005445 15 191 0.0 0.0 0.00 0.00 0.00 72 1012.3
20260510004428 15 191 0.0 0.0 0.00 0.00 0.00 70 1012.1
20260510003431 16 191 0.0 0.0 0.00 0.00 0.00 68 1011.9
20260510002434 17 191 0.0 1.6 0.00 0.00 0.00 66 1011.9
20260510001420 17 191 1.6 3.2 0.00 0.00 0.00 65 1011.7
20260510000428 18 191 1.6 6.4 0.00 0.00 0.00 62 1011.7
20260509235437 18 191 1.6 8.0 0.00 0.00 0.00 61 1011.6
20260509234443 18 188 4.8 11.3 0.00 0.00 0.00 60 1011.7
20260509233449 19 196 4.8 12.9 0.00 0.00 0.00 58 1011.8
20260509232433 20 196 6.4 14.5 0.00 0.00 0.00 55 1011.6
20260509231422 20 141 4.8 11.3 0.00 0.00 0.00 56 1011.7
20260509230427 20 177 4.8 12.9 0.00 0.00 0.00 56 1011.5
20260509225452 20 180 6.4 11.3 0.00 0.00 0.00 56 1011.4
20260509224437 21 200 8.0 16.1 0.00 0.00 0.00 55 1011.3
20260509223422 21 196 8.0 12.9 0.00 0.00 0.00 55 1011.3
20260509222429 21 178 8.0 14.5 0.00 0.00 0.00 55 1011.4
20260509221435 21 222 8.0 17.7 0.00 0.00 0.00 54 1011.2